Other Public Products
Issued by NWS Grand Forks, ND

Home | Current Version | Previous Version | Graphics & Text | Print | Product List | Glossary On
Versions: 1 2 3 4 5 6 7 8 9 10 11 12 13 14 15 16 17 18 19 20 21 22 23 24 25 26 27 28 29 30 31 32 33 34 35 36 37 38 39 40 41 42 43 44 45 46 47 48 49 50
000
FPUS83 KFGF 300831
OPUFGF
PRAIRIE TO PINES WEATHER ROUNDUP
NATIONAL WEATHER SERVICE EASTERN NORTH DAKOTA/GRAND FORKS ND
300 AM CDT SUN AUG 30 2015

 **SATELLITE DATA USED TO AUGMENT SKY COVER AT AUTOMATED STATIONS**
 *****  WEATHER ACROSS EASTERN NORTH DAKOTA  *****

CITY           SKY/WX    TMP DP  RH WIND       PRES   REMARKS
GRAND FORKS    PTCLDY    67  66  97 S10       29.78S
GRAND FORKS AF PTCLDY    67  67  98 S9        29.78S
GRAND CITY NWS   N/A     66 N/A N/A S9          N/A
BUXTON         NOT AVBL
DEVILS LAKE    MOCLDY    70  63  78 SE8       29.76F
FARGO          FAIR      67  63  87 S12       29.83F
WAHPETON ARPT  FAIR      63  59  88 SE7       29.87S
$$

 *****  WEATHER ACROSS CENTRAL AND WESTERN NORTH DAKOTA  *****

CITY           SKY/WX    TMP DP  RH WIND       PRES   REMARKS
JAMESTOWN      MOCLDY    68  67  96 S12       29.80F FOG
BISMARCK       MOCLDY    67  63  87 E6        29.78F
MINOT          MOCLDY    75  60  59 CALM      29.70F
MINOT AFB      CLOUDY    68  62  81 SE6       29.70F
GARRISON         N/A     68  62  81 S5        29.75F
WILLISTON      MOCLDY    67  56  67 CALM      29.69F HAZE
DICKINSON      MOCLDY    63  52  67 S8        29.76F
HETTINGER      MOCLDY    67  52  58 SE5       29.81F
$$

 *****  OTHER OBSERVATIONS NORTHEAST NORTH DAKOTA  *****

CITY           SKY/WX    TMP DP  RH WIND       PRES   REMARKS
WALHALLA       FAIR      64  64 100 MISG      29.76S FOG
LANGDON        FAIR      68  68 100 S7        29.78F
CAVALIER       FAIR      66  66 100 CALM      29.76S FOG
GRAFTON        FAIR      66  66 100 SE9       29.78S
CANDO          FAIR      66  66 100 SE6       29.76F
FORT TOTTEN      N/A     71  66  84 S7        29.95S
ROLLA          CLOUDY    68  59  73 S8        29.77F
RUGBY          FAIR      70  64  83 S5        29.74S
 ***** THE ABOVE OBSERVATIONS ARE NON NWS ARE NOT QUALITY
        CONTROLLED AND MAY MIS-REPORT RAIN FOR SNOW...
$$

 *****  OTHER OBSERVATIONS SOUTHEAST NORTH DAKOTA *****

CITY           SKY/WX    TMP DP  RH WIND       PRES   REMARKS
COOPERSTOWN    NOT AVBL
VALLEY CITY    FAIR      68  68 100 S13       29.82S
OAKES            N/A     64  64 100 S10       29.85S
GWINNER          N/A     66  66 100 S10       29.85S
SHEYENNE NWR     N/A     63  62  97 S2        29.95S
BUFFALO        NOT AVBL
WYNDMERE         N/A     63  63 100 SE6         N/A
 ***** THE ABOVE OBSERVATIONS ARE NON NWS ARE NOT QUALITY
       CONTROLLED AND MAY MIS-REPORT RAIN FOR SNOW...
$$

  *****  WEATHER ACROSS NORTHERN MINNESOTA  *****

CITY           SKY/WX    TMP DP  RH WIND       PRES   REMARKS
FLAG ISLAND    CLEAR     66  64  94 S6        29.78F
WARROAD        CLEAR     66  63  88 S7        29.80F
ROSEAU         CLEAR     66  61  82 S9        29.80S
HALLOCK        CLEAR     66  64  94 S12       29.77R
THF RVR FALLS  CLEAR    N/A N/A N/A S9        29.82F
HALSTAD        NOT AVBL
FOSSTON        CLEAR     63  61  94 S9        29.86S
BAUDETTE       CLEAR     64  61  90 S6        29.83F
WASKISH        CLEAR     64  63  94 S5        29.86S
CROOKSTON      CLEAR     66  64  94 S13       29.82S
$$
  *****  WEATHER ACROSS CENTRAL AND WEST MINNESOTA  *****

CITY           SKY/WX    TMP DP  RH WIND       PRES   REMARKS
BEMIDJI        CLEAR     63  61  96 S3        29.88F
PARK RAPIDS    CLOUDY    64  62  93 S9        29.91F
WADENA         MOCLDY    63  61  94 S3        29.91F FOG
DETROIT LAKES  PTCLDY    64  63  94 S8        29.89F
MOORHEAD       PTCLDY    64  63  94 S12       29.84F
FERGUS FALLS   CLEAR     64  64 100 SE9       29.88F
ELBOW LAKE     FAIR      63  62  97 SE10      29.89F
MORRIS MN      CLEAR     63  61  94 SE8       29.91S FOG
STAPLES        CLOUDY    63  63 100 S8        29.93S
WHEATON        CLEAR     59  57  94 SE10      29.89F
$$
  *****  WEATHER ELSEWHERE ACROSS MINNESOTA  *****

CITY           SKY/WX    TMP DP  RH WIND       PRES   REMARKS
DULUTH         MOCLDY    62  60  93 SW8       29.95F FOG
INTRNTL FALLS  CLEAR     63  61  93 VRB3      29.86F
ELY            CLEAR     61  57  88 SW3       29.92F
CLOQUET        CLOUDY    63  61  94 SW5       29.95F FOG
BRAINERD       CLOUDY    63  62  97 S12       29.94F
HIBBING        CLOUDY    60  59  96 VRB5      29.93S FOG
ALEXANDRIA     CLEAR     64  62  93 S9        29.95S
SAINT CLOUD    FOG       57  57 100 SE6       29.96F VSB 3/4
MINNEAPOLIS    CLOUDY    63  62  97 S6        29.99S FOG
$$

  *****  WEATHER ACROSS SOUTH DAKOTA  *****

CITY           SKY/WX    TMP DP  RH WIND       PRES   REMARKS
SIOUX FALLS    CLOUDY    63  61  93 S9        29.99S
BROOKINGS      MOCLDY    63  59  88 S9        29.98S
WATERTOWN      CLEAR     63  61  93 S13       29.93F
HURON          CLEAR     66  64  93 S13       29.89F
SISSETON         N/A     69  64  84 S7        29.85F
ABERDEEN       CLEAR     65  63  93 S10       29.86F
MITCHELL       CLEAR     65  64  97 S12       29.93F
PIERRE         CLEAR     73  58  59 S10       29.84F
MOBRIDGE       MOCLDY    69  65  86 SE10      29.80F
RAPID CITY     PTCLDY    69  44  40 SE7       29.88F
$$

  *****  SOME WEATHER IN NEARBY STATES *****

CITY           SKY/WX    TMP DP  RH WIND       PRES   REMARKS
GLASGOW MT     PTCLDY    67  46  47 E9        29.67F HAZE
GREAT FALLS MT CLOUDY    64  50  60 CALM      29.82R HAZE
CHEYENNE WY    PTCLDY    60  42  51 SW3       30.14F
SCOTTSBLUFF NE PTCLDY    74  40  29 SE10      30.01F
OMAHA NE       PTCLDY    63  61  93 S6        30.03F
DES MOINES IA  PTCLDY    62  59  90 CALM      30.03S
DAVENPORT IA   FOG       60  59  96 E3        30.04S VSB 1/4
CHICAGO IL     CLOUDY    65  64  97 N5        30.02F FOG
EAU CLAIRE WI  CLEAR     60  58  92 S3        30.02S
LA CROSSE WI   CLEAR     59  58  96 SE3       30.03S
$$

  *****  SOME NATIONAL WEATHER *****

CITY           SKY/WX    TMP DP  RH WIND       PRES   REMARKS
LA GUARDIA NY  MOCLDY    74  61  63 SW5       30.07F
RALEIGH NC     CLOUDY    68  61  78 CALM      30.14S
ATLANTA GA     CLOUDY    72  64  76 SE7       30.11S
NEW ORLEANS LA PTCLDY    76  67  73 S3        30.00F
OKLAHOMA CITY  PTCLDY    72  66  81 N7        29.98F
ALBUQUERQUE NM CLEAR     73  50  44 CALM      30.24F
SALT LAKE CITY MOCLDY    83  43  24 S16       29.89S
LOS ANGELES CA CLEAR     72  67  84 SW7       29.86R
BOISE ID       CLOUDY    73  47  39 S6        29.88R
SEATTLE WA     RAIN      56  54  93 S6        29.76F FOG
$$

*** WEATHER ACROSS MANITOBA...SASKATCHEWAN AND ONTARIO ***
                ***ONTARIO***

CITY           SKY/WX    TMP DP  RH WIND       PRES   REMARKS
GERALDTON      CLOUDY    63  61  94 SW12      29.90F FOG
THUNDER BAY    CLOUDY    57  55  94 VRB2      29.93S
SIOUX LOOKOUT  CLOUDY    66  64  94 S6        29.81F
TORONTO        CLOUDY    68  59  73 CALM      30.06S
BIG TROUT LK   CLOUDY    68  59  73 SW10      29.58F
PICKLE LAKE    NOT AVBL
DRYDEN         CLOUDY    66  63  88 S8        29.82S
KENORA         CLOUDY    68  66  94 SW12      29.80S
$$
                *** MANITOBA***

CITY           SKY/WX    TMP DP  RH WIND       PRES   REMARKS
BRANDON        PTCLDY    61  57  88 NE6       29.74  SMOKE
DAUPHIN        MOCLDY    64  55  72 SW8       29.70F
ISLAND LAKE    PTCLDY    66  64  94 W7        29.59R
PILOT MOUND      N/A    N/A N/A N/A S5          N/A
THE PAS        CLOUDY    63  61  94 NE5       29.66F
THOMPSON       CLOUDY    54  52  94 NE10      29.72R
WINNIPEG       PTCLDY    66  66 100 S8        29.74F
LYNN LAKE      CLOUDY    54  52  94 MISG      29.75S
CHURCHILL      CLOUDY    48  46  93 E15G21    29.80R FOG
$$
                ***SASKATCHEWAN***

CITY           SKY/WX    TMP DP  RH WIND       PRES   REMARKS
ESTEVAN          N/A     68  54  60 SE10      29.70F SMOKE
KINDERSLEY     PTCLDY    64  52  63 S10       29.62F
LLOYDMINSTER   CLEAR     61  48  63 S13       29.50S
PRINCE ALBERT  CLOUDY    64  57  77 S7        29.64R
REGINA         CLOUDY    72  52  49 SE10      29.68S SMOKE
YORKTON        CLEAR     61  54  77 S6        29.70S



USA.gov is the U.S. government's official web portal to all federal, state and local government web resources and services.